Wetbulb
57.58 57.67 57.47 57.03 56.68 56.72 56.97 56.95 56.74 56.74 57.07 57.05 56.76 56.77 56.35 57.71 57.77 58.63 52.25 57.56 59.80 66.96 68.47 65.87 64.38 68.77 71.68 68.19 69.22 68.44 62.84 57.83 60.11 61.08 62.44 66.28 62.62 66.67 68.51 66.54 66.70 67.61 67.01 69.67 71.82
57.66 57.85 57.77 57.56 56.86 56.76 56.59 56.76 56.70 56.85 56.67 56.32 56.53 56.14 56.10 57.29 57.27 53.41 61.77 62.26 63.35 69.46 64.85 61.44 59.84 66.29 66.22 66.36 66.88 66.78 63.29 58.36 63.15 64.28 63.61 65.22 64.80 65.74 65.28 65.42 65.45 65.96 69.20 70.70 71.07
57.29 57.37 57.24 57.24 56.82 56.94 56.76 56.55 56.57 56.81 56.25 56.42 56.31 56.22 55.97 58.27 54.68 50.85 65.81 63.44 64.98 69.71 65.13 61.85 59.96 62.97 62.62 64.82 65.82 65.33 61.39 61.58 61.57 65.03 66.72 63.08 63.15 66.54 65.00 63.35 65.78 65.30 67.40 68.94 69.61
57.12 56.85 56.68 56.56 56.50 56.79 56.86 56.54 56.41 56.30 55.82 55.80 56.07 56.52 56.41 58.56 46.86 61.89 65.86 65.34 67.73 66.46 63.59 60.43 58.17 57.12 61.39 62.19 64.73 62.49 64.38 64.83 64.94 66.67 66.00 64.73 65.40 64.89 65.70 65.47 67.90 68.00 68.76 68.92 68.38
56.98 57.00 56.77 55.93 56.16 56.38 56.29 56.40 56.05 55.63 55.43 55.54 56.01 56.39 57.97 53.56 51.49 64.85 66.12 68.75 63.90 62.77 60.32 58.94 56.49 56.59 59.68 63.25 63.83 62.60 64.76 65.54 66.97 65.43 65.20 65.63 62.08 62.91 63.86 66.60 68.37 68.52 68.55 68.26 67.82
56.35 56.62 56.61 55.78 55.63 55.89 55.90 55.61 55.24 55.02 55.09 55.85 56.15 56.27 56.39 47.82 58.61 66.28 61.72 66.85 62.88 60.76 59.44 59.78 56.89 60.27 62.99 62.76 62.81 63.38 63.64 64.87 66.43 65.46 66.29 62.32 63.11 62.20 63.03 67.00 67.07 67.72 67.75 68.36 68.58
56.12 56.18 56.39 55.62 55.14 55.01 55.00 55.02 55.06 55.22 55.56 55.73 56.34 58.47 54.77 49.90 59.46 67.17 61.89 63.83 62.18 60.60 58.76 59.92 60.00 63.20 63.99 61.66 61.73 62.14 62.40 64.71 65.38 65.17 63.75 63.83 58.70 59.18 63.98 66.76 66.43 67.22 68.10 68.80 69.61
55.63 55.99 55.77 55.15 54.64 54.09 54.02 54.12 55.12 55.23 55.33 55.71 56.61 58.61 50.84 55.19 65.55 63.18 61.53 61.84 61.50 58.70 59.10 60.35 62.44 64.07 63.36 63.63 64.35 62.08 62.93 59.75 64.06 64.31 62.12 61.35 56.17 61.77 66.53 66.08 65.81 66.97 67.94 68.66 69.83
56.15 55.80 55.54 54.85 54.33 53.76 53.17 53.87 55.39 55.84 56.19 57.38 58.21 55.98 48.51 59.12 59.81 59.10 58.95 56.06 57.58 56.41 57.24 57.36 61.25 62.39 61.18 59.54 59.69 61.18 57.29 58.94 61.09 65.52 62.74 61.48 56.97 61.77 66.50 65.52 65.89 67.27 68.05 68.56 69.60
55.93 56.08 55.30 54.79 54.21 53.47 53.47 55.70 57.82 57.31 58.38 59.16 58.47 54.59 54.81 54.24 59.35 57.88 57.85 55.74 54.47 54.86 53.59 55.03 58.15 58.65 59.10 57.56 54.65 56.45 57.48 59.97 60.01 64.05 63.73 61.54 60.68 62.91 64.37 64.13 64.72 66.13 67.10 68.59 69.24
56.33 55.89 55.39 54.92 54.37 53.55 55.18 60.25 58.10 56.76 56.17 55.10 52.03 53.67 56.21 59.51 60.52 57.74 58.20 55.96 54.81 53.60 50.14 54.49 53.99 53.97 57.34 57.59 56.80 59.34 57.45 57.76 61.70 64.71 62.68 60.37 61.31 62.60 63.44 62.99 62.51 63.93 65.92 68.18 68.65
56.20 56.04 55.49 54.71 53.78 52.67 55.73 56.26 56.87 57.12 52.66 57.09 56.35 55.39 57.26 59.41 54.86 56.87 58.06 53.16 51.45 48.88 52.75 53.04 52.25 57.31 59.30 55.60 54.89 56.86 55.35 58.05 61.15 64.20 63.46 61.19 60.45 64.31 65.08 63.04 61.80 63.53 65.46 67.72 68.52
55.98 55.79 54.86 54.03 52.34 53.88 56.97 57.10 59.72 59.17 53.43 53.08 55.57 55.92 56.66 57.46 54.60 54.64 56.08 53.55 50.67 49.67 52.00 49.55 53.26 58.05 54.86 53.99 53.84 54.27 54.13 58.18 58.05 61.99 63.08 61.71 58.89 61.50 64.28 66.07 64.64 64.24 64.81 65.87 67.68
56.08 54.81 53.99 53.17 51.67 59.61 56.84 59.32 60.05 58.31 49.24 49.19 52.62 55.23 56.81 56.93 52.90 58.54 57.03 52.57 50.03 49.36 52.13 52.40 55.44 54.98 55.06 54.16 55.40 53.63 54.10 58.25 59.85 58.27 53.53 62.17 52.65 59.00 62.37 62.94 63.88 65.17 63.71 64.20 67.48
55.83 54.50 53.15 51.80 58.03 56.59 57.33 60.32 59.50 56.09 39.48 51.02 52.51 58.86 58.42 55.53 55.85 55.58 58.28 56.02 50.68 51.98 53.75 52.20 53.22 52.93 52.44 53.34 54.67 53.69 54.00 54.59 56.35 55.08 55.25 57.14 54.55 58.97 62.93 60.35 62.64 65.23 63.92 65.10 65.57
54.70 53.72 52.70 54.87 57.55 58.98 60.56 59.07 57.17 46.23 38.96 48.10 51.74 52.41 53.21 54.56 54.63 55.93 56.42 57.87 55.97 53.54 54.57 53.26 56.39 54.31 54.06 55.03 54.58 55.66 53.79 55.24 56.22 54.24 49.24 53.79 54.59 56.68 59.32 60.81 62.83 64.60 66.58 66.74 65.58
53.04 52.09 52.77 58.03 57.17 60.67 59.96 57.47 48.46 44.04 50.20 47.42 48.75 52.13 52.32 51.97 52.44 53.18 52.84 51.40 49.98 47.95 48.86 51.20 51.79 54.49 54.05 51.61 53.56 55.22 53.60 48.96 47.70 48.31 47.70 55.48 53.76 56.18 61.91 63.37 64.32 65.87 66.39 67.67 66.92
51.64 50.50 55.09 58.36 61.15 58.92 57.66 53.99 43.35 46.53 47.63 51.44 49.82 51.81 49.55 51.08 51.68 52.32 51.49 48.88 51.47 50.59 49.19 47.37 45.63 51.36 53.92 52.29 50.90 53.55 54.28 49.52 44.50 46.44 49.15 56.26 50.89 57.17 63.01 64.83 66.50 68.02 68.04 68.47 68.23
50.88 58.74 58.78 59.61 59.18 59.43 56.35 48.68 46.76 48.30 50.59 48.80 49.30 48.79 49.20 50.25 50.38 50.69 50.89 50.17 50.64 52.17 48.26 46.91 46.51 52.26 53.09 53.88 53.88 51.75 50.26 55.22 50.86 52.71 50.32 54.12 56.05 61.42 63.21 63.41 64.78 65.87 67.63 66.83 68.21
59.26 58.05 57.05 59.80 59.71 58.41 54.07 45.82 49.45 52.02 52.21 51.07 46.60 49.06 47.29 48.59 48.64 49.82 49.49 51.91 50.91 52.29 54.44 51.19 47.11 51.60 52.20 54.47 53.98 53.43 55.44 48.88 50.37 46.17 45.05 50.96 52.44 55.77 60.52 61.76 64.11 65.23 66.72 67.73 68.03
58.29 54.18 58.60 60.44 60.14 57.31 50.22 49.13 50.37 53.37 53.01 50.37 48.67 48.01 48.65 48.28 49.43 48.87 48.86 51.44 51.56 51.74 53.59 53.05 51.17 50.25 53.34 51.53 50.19 50.85 50.81 51.81 51.65 50.46 47.30 46.66 50.98 61.98 61.73 63.27 64.26 65.61 67.32 68.09 68.53
57.69 51.59 60.07 61.08 53.73 55.02 49.95 50.09 47.14 51.17 53.06 51.93 51.98 50.77 49.72 49.66 48.99 48.82 48.39 51.09 53.33 53.36 50.57 53.78 51.66 48.41 49.65 53.34 54.16 54.22 51.76 52.41 48.05 48.34 51.11 50.76 51.64 62.86 63.79 63.86 65.70 66.18 67.53 68.62 69.00
57.47 54.93 60.07 59.02 50.63 49.64 51.18 49.28 50.79 49.93 50.67 50.45 49.58 51.62 51.92 49.57 48.13 50.22 50.93 52.89 52.34 51.92 52.11 53.80 49.85 46.31 47.42 50.60 52.48 51.58 52.30 53.06 53.01 52.68 50.23 47.43 49.69 62.86 63.72 63.81 65.65 66.00 66.61 67.84 67.50
57.29 51.01 55.71 57.34 56.57 52.27 49.59 48.25 47.55 50.81 50.76 51.63 50.89 52.22 50.97 49.56 51.73 49.86 50.16 51.25 52.20 53.00 52.06 52.85 51.07 48.90 45.17 48.15 51.84 49.39 49.89 51.56 51.44 48.51 49.32 50.62 53.06 59.43 62.15 62.65 64.02 64.71 64.26 65.80 66.72
58.55 53.57 54.30 50.97 52.60 53.19 52.29 49.22 46.89 45.85 50.81 51.87 50.38 50.35 49.42 47.83 48.84 48.75 50.41 50.96 51.40 52.83 52.70 52.60 48.86 50.14 49.66 49.30 49.26 49.26 49.46 50.81 50.96 51.17 49.39 50.92 52.79 56.25 62.30 63.50 63.75 63.31 63.16 63.55 64.77
57.33 56.97 56.81 54.77 51.63 51.95 48.06 49.12 47.50 47.77 48.85 47.83 48.51 49.67 50.30 48.77 49.60 48.48 50.38 51.27 49.82 51.81 51.41 51.39 48.87 50.02 48.02 49.34 49.39 47.57 49.46 51.17 51.72 52.29 53.01 53.74 54.50 61.30 64.47 65.27 62.23 62.96 63.17 64.07 64.50
60.92 60.80 57.09 47.92 51.28 50.78 50.53 49.59 49.12 50.81 50.87 51.27 50.03 49.57 47.98 48.88 50.90 51.81 53.00 52.22 52.14 51.59 49.38 49.97 49.93 47.90 45.07 48.87 48.61 46.01 48.88 50.19 52.30 55.27 54.85 52.65 58.03 62.00 62.36 60.86 61.72 62.04 63.24 63.24 63.81
MSLP
1017.74 1017.48 1017.28 1017.14 1016.98 1016.88 1016.80 1016.67 1016.58 1016.41 1016.27 1016.21 1016.10 1015.95 1015.78 1015.44 1014.86 1014.22 1012.16 1010.90 1010.88 1011.43 1011.57 1010.82 1010.46 1010.15 1010.05 1009.55 1010.20 1010.14 1009.53 1009.73 1009.52 1009.02 1009.69 1009.92 1010.42 1010.62 1010.53 1010.87 1011.14 1011.73 1012.18 1014.07 1015.33
1017.65 1017.38 1017.18 1017.00 1016.87 1016.74 1016.66 1016.55 1016.44 1016.30 1016.19 1016.08 1015.92 1015.91 1015.72 1015.36 1013.96 1012.02 1010.65 1010.98 1011.19 1011.27 1010.78 1010.13 1009.60 1009.69 1009.08 1008.98 1009.28 1008.58 1008.90 1009.84 1010.29 1010.28 1009.99 1010.22 1010.42 1010.56 1010.69 1011.08 1011.56 1011.95 1013.23 1014.60 1015.05
1017.52 1017.22 1016.99 1016.77 1016.56 1016.43 1016.36 1016.33 1016.36 1016.28 1016.14 1016.00 1015.85 1015.72 1015.60 1015.06 1012.74 1009.40 1010.27 1010.89 1011.19 1011.08 1010.14 1009.60 1009.26 1009.09 1008.37 1008.34 1008.49 1008.39 1008.86 1010.11 1010.49 1010.43 1009.89 1010.85 1011.05 1010.88 1010.85 1010.92 1011.48 1012.17 1013.38 1014.50 1014.84
1017.42 1017.16 1016.90 1016.64 1016.44 1016.35 1016.19 1016.11 1016.09 1016.03 1016.03 1015.96 1015.85 1015.58 1015.37 1014.22 1010.84 1009.60 1009.91 1010.61 1011.03 1010.59 1010.06 1009.61 1009.14 1008.45 1007.66 1007.46 1008.01 1008.04 1009.29 1009.70 1010.05 1010.52 1010.48 1010.86 1011.51 1011.74 1011.81 1011.52 1011.44 1012.53 1013.52 1014.25 1014.69
1017.36 1017.08 1016.82 1016.58 1016.36 1016.21 1016.10 1016.10 1016.03 1016.01 1015.87 1015.71 1015.66 1015.55 1014.98 1012.60 1009.67 1009.97 1010.42 1010.64 1010.64 1010.42 1009.70 1009.25 1008.75 1007.87 1007.10 1007.13 1007.72 1007.69 1008.32 1009.29 1009.50 1011.07 1011.62 1011.92 1012.72 1013.05 1013.32 1012.31 1012.16 1013.07 1013.88 1014.22 1014.50
1017.25 1016.94 1016.67 1016.44 1016.25 1016.08 1015.97 1015.89 1015.87 1015.92 1015.79 1015.62 1015.48 1015.44 1013.75 1010.89 1009.80 1009.75 1009.82 1010.29 1009.95 1009.79 1009.36 1009.05 1008.46 1007.90 1007.08 1007.00 1006.87 1007.57 1008.10 1009.02 1009.62 1011.10 1012.05 1012.85 1013.58 1013.42 1014.35 1013.28 1013.23 1013.48 1013.80 1014.18 1014.50
1017.12 1016.85 1016.56 1016.32 1016.15 1015.99 1015.89 1015.82 1015.78 1015.75 1015.61 1015.56 1015.34 1014.75 1012.52 1009.82 1009.94 1009.52 1009.70 1009.59 1009.73 1009.24 1009.06 1008.96 1008.94 1008.30 1007.27 1006.98 1007.46 1007.46 1008.06 1009.11 1010.04 1011.27 1012.62 1013.30 1014.40 1014.63 1014.54 1013.70 1013.62 1013.55 1013.77 1014.17 1014.61
1016.99 1016.74 1016.46 1016.21 1015.99 1015.84 1015.72 1015.62 1015.50 1015.42 1015.40 1015.46 1015.37 1014.06 1010.37 1010.05 1009.85 1009.95 1009.72 1009.76 1010.00 1009.90 1009.26 1009.38 1009.27 1008.24 1007.32 1007.34 1007.12 1006.85 1007.34 1008.18 1010.38 1011.57 1013.34 1013.64 1014.00 1014.53 1014.45 1013.84 1013.66 1013.57 1013.82 1014.27 1014.70
1016.87 1016.62 1016.35 1016.06 1015.89 1015.76 1015.70 1015.52 1015.30 1015.07 1015.05 1015.02 1014.53 1012.93 1009.56 1010.46 1009.53 1009.55 1009.53 1009.36 1009.62 1009.82 1009.76 1009.80 1009.27 1007.87 1007.68 1006.70 1006.35 1006.37 1006.11 1007.60 1009.80 1010.63 1012.27 1012.89 1013.32 1014.35 1014.38 1013.98 1013.84 1013.69 1013.86 1014.18 1014.66
1016.74 1016.48 1016.26 1016.06 1015.87 1015.74 1015.54 1015.23 1015.00 1014.86 1014.67 1014.32 1013.32 1012.07 1009.68 1008.56 1008.86 1009.28 1009.42 1009.34 1009.20 1009.33 1009.46 1009.34 1008.73 1007.59 1006.71 1005.90 1004.51 1004.85 1005.03 1006.34 1007.93 1009.88 1011.26 1011.99 1012.34 1013.58 1014.46 1015.00 1014.79 1014.47 1014.04 1014.08 1014.35
1016.59 1016.31 1016.06 1015.89 1015.72 1015.58 1015.10 1014.46 1014.07 1013.22 1012.42 1010.36 1009.79 1009.02 1008.20 1008.45 1008.83 1008.88 1009.30 1009.22 1009.04 1008.78 1008.07 1008.48 1007.82 1006.50 1005.77 1005.68 1005.14 1004.44 1004.96 1005.76 1007.36 1008.83 1010.09 1011.11 1011.61 1013.02 1014.37 1015.04 1015.21 1015.28 1015.10 1013.84 1013.96
1016.39 1016.10 1015.82 1015.62 1015.55 1015.53 1015.01 1012.25 1010.82 1010.81 1009.51 1009.24 1009.29 1008.98 1008.61 1008.00 1008.07 1008.52 1008.88 1008.62 1008.54 1007.65 1007.54 1008.09 1006.91 1006.28 1006.07 1006.42 1006.01 1005.37 1005.26 1005.84 1007.81 1008.72 1009.27 1010.19 1010.92 1012.01 1013.34 1014.05 1015.10 1015.38 1014.87 1013.91 1014.07
1016.13 1015.84 1015.62 1015.46 1015.36 1015.14 1012.91 1011.24 1010.69 1010.50 1008.98 1008.37 1008.21 1007.69 1007.67 1008.01 1007.14 1008.05 1008.29 1007.84 1007.80 1007.18 1007.02 1006.44 1006.21 1006.63 1007.10 1006.58 1005.98 1005.49 1005.14 1005.78 1006.39 1008.25 1008.74 1009.42 1010.67 1011.66 1012.76 1013.80 1014.70 1015.42 1015.36 1015.59 1014.76
1016.03 1015.78 1015.56 1015.28 1015.44 1012.71 1011.32 1010.78 1010.78 1010.76 1008.23 1007.77 1007.21 1006.94 1007.31 1006.87 1006.90 1007.70 1007.70 1007.26 1007.20 1006.86 1006.84 1006.20 1006.79 1006.94 1006.86 1006.25 1006.10 1005.24 1006.06 1006.26 1006.72 1007.06 1007.42 1008.26 1008.98 1010.49 1011.62 1012.58 1013.38 1014.23 1014.99 1015.41 1014.91
1015.73 1015.55 1015.40 1015.28 1013.31 1011.53 1010.69 1010.64 1010.66 1010.55 1007.46 1007.24 1006.69 1006.84 1006.60 1006.34 1006.60 1007.36 1007.43 1007.18 1006.71 1006.48 1006.73 1006.14 1006.71 1006.70 1006.39 1006.22 1006.57 1005.62 1006.33 1006.31 1006.35 1006.35 1006.51 1007.24 1007.03 1007.51 1010.05 1011.38 1012.27 1013.09 1014.25 1014.84 1015.05
1015.40 1015.27 1015.14 1014.35 1013.12 1010.85 1010.66 1010.58 1010.46 1008.90 1007.10 1006.62 1006.53 1006.31 1006.25 1005.98 1006.07 1007.02 1007.29 1007.21 1006.52 1006.82 1006.73 1006.36 1006.73 1006.74 1006.39 1006.60 1006.93 1006.63 1006.50 1006.37 1006.42 1005.92 1005.53 1005.28 1006.04 1006.53 1008.06 1009.07 1010.59 1012.06 1012.92 1013.77 1014.46
1014.87 1014.75 1014.79 1012.86 1010.56 1010.69 1010.57 1009.80 1008.12 1006.58 1007.28 1006.53 1005.94 1005.84 1005.39 1005.84 1006.20 1006.68 1006.70 1006.46 1006.20 1006.43 1006.30 1006.64 1006.59 1006.67 1006.99 1006.50 1006.88 1006.88 1005.96 1005.33 1005.29 1005.02 1004.34 1004.78 1005.62 1004.71 1006.91 1008.32 1009.24 1010.19 1011.60 1012.60 1014.03
1014.13 1013.84 1013.14 1011.96 1011.27 1010.96 1009.98 1008.32 1006.86 1007.06 1006.39 1006.65 1006.15 1005.68 1005.63 1006.02 1006.29 1006.30 1006.38 1006.37 1006.70 1006.09 1005.27 1005.55 1005.78 1006.00 1006.26 1006.07 1005.78 1006.10 1005.24 1003.93 1003.55 1003.13 1003.42 1004.97 1005.02 1004.93 1006.50 1007.87 1008.55 1009.20 1010.69 1011.49 1013.16
1013.36 1012.02 1011.42 1010.98 1011.18 1010.98 1008.89 1006.85 1006.64 1006.72 1006.88 1006.25 1006.23 1005.76 1006.05 1006.41 1006.29 1006.39 1006.22 1006.01 1006.38 1006.32 1005.59 1005.38 1004.98 1005.42 1005.77 1005.80 1005.80 1005.40 1005.31 1004.60 1003.64 1002.93 1002.70 1003.34 1004.69 1006.41 1007.14 1007.75 1008.47 1008.99 1009.66 1010.88 1012.42
1012.28 1010.62 1010.23 1010.63 1010.76 1010.01 1007.69 1006.93 1007.06 1007.37 1007.03 1006.62 1005.56 1005.89 1005.54 1006.09 1006.23 1006.02 1006.42 1006.36 1006.59 1006.94 1006.62 1005.76 1005.05 1005.39 1005.77 1006.00 1005.86 1005.39 1005.38 1005.08 1004.75 1003.07 1002.81 1003.12 1004.06 1004.11 1006.30 1006.99 1007.88 1008.36 1009.09 1010.39 1012.30
1011.74 1009.43 1010.29 1010.39 1010.32 1008.34 1006.66 1007.18 1007.26 1007.44 1007.30 1006.46 1006.24 1006.24 1006.15 1006.34 1006.09 1006.11 1006.43 1007.10 1007.20 1007.24 1007.03 1006.19 1005.47 1005.62 1005.87 1005.40 1004.70 1005.46 1005.10 1004.78 1003.88 1003.52 1002.44 1002.79 1003.04 1004.69 1005.88 1006.82 1007.51 1008.16 1009.00 1010.03 1011.41
1010.75 1008.86 1010.16 1010.17 1008.35 1007.61 1006.86 1007.46 1007.67 1007.15 1007.16 1006.87 1006.73 1006.73 1006.71 1006.88 1006.58 1006.55 1006.60 1006.90 1007.82 1007.40 1007.02 1006.88 1005.63 1004.75 1004.99 1005.70 1005.56 1004.64 1004.20 1004.06 1003.80 1003.54 1003.65 1003.25 1004.46 1005.88 1006.54 1007.37 1007.95 1008.34 1009.12 1010.08 1011.38
1010.13 1009.33 1009.81 1009.50 1007.28 1007.03 1007.52 1007.56 1007.54 1007.20 1007.57 1007.33 1007.30 1007.35 1007.39 1007.25 1007.21 1007.10 1007.39 1008.27 1008.29 1007.87 1007.48 1007.37 1006.27 1005.41 1005.48 1006.02 1006.14 1005.29 1005.12 1004.61 1003.98 1003.41 1003.04 1003.55 1004.34 1006.44 1007.20 1008.03 1008.77 1009.35 1009.94 1010.56 1011.81
1010.55 1008.91 1009.04 1008.62 1008.25 1007.29 1007.20 1007.35 1007.64 1008.24 1008.18 1008.24 1008.18 1007.84 1007.56 1007.48 1007.54 1007.55 1007.68 1008.31 1008.60 1008.54 1008.88 1008.48 1006.68 1006.01 1005.06 1005.27 1004.90 1005.49 1005.71 1005.35 1004.45 1003.78 1003.29 1003.32 1004.09 1006.13 1007.04 1008.36 1009.72 1010.71 1011.77 1012.06 1012.71
1010.68 1009.19 1009.29 1008.06 1007.86 1007.68 1007.59 1007.61 1007.77 1008.09 1008.55 1008.52 1008.45 1008.41 1008.09 1007.75 1007.80 1008.02 1008.04 1008.23 1008.67 1009.14 1008.84 1008.20 1007.35 1007.38 1006.62 1006.74 1006.44 1006.36 1006.05 1005.64 1005.12 1004.48 1003.76 1003.47 1003.84 1004.65 1006.94 1008.47 1010.18 1011.72 1012.74 1013.04 1013.58
1010.60 1009.41 1009.55 1008.80 1008.70 1007.93 1008.16 1007.92 1008.12 1008.67 1008.59 1008.66 1008.78 1008.79 1008.71 1008.84 1009.11 1008.57 1008.53 1008.42 1008.22 1008.73 1008.60 1008.57 1007.92 1008.00 1007.44 1007.63 1007.48 1007.00 1006.68 1006.18 1005.96 1005.64 1005.52 1005.02 1005.07 1006.50 1007.81 1009.36 1011.15 1012.04 1012.96 1013.50 1014.20
1011.96 1011.29 1010.17 1009.48 1008.56 1007.72 1007.99 1008.18 1008.68 1009.04 1009.73 1009.60 1009.58 1009.32 1009.57 1010.21 1010.11 1009.84 1009.60 1009.48 1009.36 1008.97 1008.53 1008.69 1008.18 1008.23 1007.38 1008.02 1007.85 1007.37 1006.90 1006.92 1006.67 1006.84 1006.63 1006.22 1007.25 1007.72 1009.22 1010.71 1011.78 1012.76 1013.53 1014.06 1014.72
Wind_Speed
9 9 9 8 9 8 7 6 6 7 7 8 9 9 10 11 13 9 11 1 5 12 10 11 10 9 9 4 4 4 2 5 4 9 8 12 7 4 6 12 7 4 14 22 18
10 10 10 9 9 9 8 7 7 7 7 7 7 9 9 9 11 12 3 6 4 15 16 16 14 13 7 5 4 5 4 5 1 3 9 8 10 11 10 12 13 16 21 21 19
10 10 9 9 9 9 8 8 8 8 8 7 7 7 7 11 8 3 8 12 12 15 14 13 10 12 6 5 4 3 5 7 5 5 5 9 4 5 10 10 14 19 23 20 19
10 10 10 10 9 9 9 8 7 7 8 8 8 8 7 7 2 6 4 15 14 17 12 12 13 12 7 6 5 8 9 13 14 7 5 9 7 15 9 3 11 20 22 20 18
11 10 9 9 9 9 8 8 7 7 7 7 7 7 8 8 1 9 14 14 18 16 17 14 13 10 9 5 9 4 9 10 7 9 5 11 7 9 9 9 18 20 18 17 15
10 10 9 8 8 8 7 6 7 7 7 7 6 6 9 7 4 2 13 16 14 18 16 13 9 6 4 5 7 8 5 5 3 16 12 12 9 6 1 11 17 18 17 16 14
10 11 9 8 7 7 6 6 6 6 7 6 5 8 8 3 4 3 16 14 13 13 14 13 7 9 4 7 4 7 9 6 7 14 7 15 4 6 5 13 17 17 15 14 13
11 11 10 8 6 6 6 6 6 5 4 5 5 8 4 3 6 7 11 12 9 4 8 4 7 7 9 5 7 9 9 9 11 13 5 4 8 11 15 16 18 18 15 13 12
11 11 10 8 7 7 7 8 7 5 6 6 8 7 6 6 9 10 12 15 14 6 5 4 7 7 7 13 10 9 9 7 11 11 11 11 7 14 14 15 16 16 15 13 12
12 10 10 9 8 8 9 7 9 10 8 6 5 7 6 9 11 12 4 15 14 11 9 10 8 10 11 12 13 12 9 14 12 14 16 17 7 24 15 11 15 13 11 14 13
11 10 10 9 7 6 5 6 8 8 7 8 4 4 8 10 15 11 11 11 13 14 11 14 11 16 15 13 8 4 4 9 10 12 15 14 11 23 15 12 8 7 14 15 14
10 9 8 8 6 2 7 6 6 7 6 6 6 5 3 7 10 13 14 11 13 16 12 10 15 16 3 5 9 9 8 10 6 10 7 8 10 20 22 21 17 13 20 13 14
9 9 8 7 3 5 7 7 4 5 7 6 4 5 9 11 11 16 16 6 16 16 18 15 15 7 10 11 11 8 7 9 7 11 4 8 7 14 15 18 19 12 4 9 11
11 11 9 5 5 1 5 2 3 4 7 8 9 7 9 10 8 16 14 9 9 15 15 10 7 11 13 12 11 12 4 4 11 13 6 15 5 13 16 17 22 21 14 16 18
12 11 8 7 8 5 5 2 2 5 2 5 7 6 11 11 19 14 12 7 12 11 11 7 10 12 12 10 8 2 3 7 7 7 6 12 10 15 17 15 19 21 19 18 15
14 9 7 6 5 6 2 2 5 8 6 6 6 10 13 9 11 14 12 9 0 11 14 12 6 7 7 7 9 1 7 6 5 6 9 8 12 13 17 21 20 21 23 19 19
14 9 7 4 2 1 2 5 7 3 3 7 6 12 9 15 13 17 14 11 9 11 12 9 13 9 4 9 8 12 12 9 9 9 9 7 8 6 13 9 21 22 23 23 17
19 10 10 5 3 6 6 8 1 2 3 4 3 11 10 7 7 9 13 9 1 7 9 12 16 14 13 11 8 14 17 11 11 11 11 9 7 3 7 5 10 18 22 22 19
20 5 4 3 6 6 9 3 5 4 2 4 9 12 11 6 4 7 10 11 8 8 5 9 7 8 12 11 13 14 16 15 15 11 9 12 8 7 8 8 11 14 20 21 18
4 3 4 4 6 7 7 6 4 3 3 3 5 6 10 7 8 8 10 6 7 3 8 4 8 10 12 9 12 12 7 16 10 13 13 7 8 4 10 10 12 14 20 22 21
5 4 5 6 4 8 2 7 5 5 3 4 3 6 3 6 3 5 4 7 1 3 8 3 9 12 10 13 15 12 13 8 15 15 12 13 8 6 5 8 12 14 18 20 21
4 4 4 4 6 1 6 3 2 6 3 5 6 7 6 2 4 4 6 5 2 1 7 3 8 9 10 6 5 10 15 16 11 14 10 15 5 5 6 5 9 12 15 18 21
0 5 3 5 3 7 7 10 10 6 8 5 5 6 3 4 3 2 5 5 3 1 2 2 7 7 8 10 6 10 5 11 10 14 11 15 11 6 7 7 8 10 10 13 15
4 6 4 4 2 2 7 5 8 6 8 5 4 3 5 6 3 6 8 5 3 5 3 4 8 11 6 8 2 9 8 7 13 13 13 12 8 9 11 11 11 10 11 9 9
2 5 5 6 5 2 1 3 6 5 4 3 5 6 6 3 5 4 2 8 5 6 2 6 9 5 7 4 3 2 6 6 12 16 15 9 11 8 11 12 12 12 11 11 11
4 2 3 3 3 7 5 4 9 8 5 7 8 8 6 6 7 5 2 1 2 5 1 3 5 8 8 4 5 8 6 7 4 6 9 10 7 6 10 10 12 12 13 12 12
2 1 6 3 6 7 3 6 9 8 6 6 4 2 6 8 7 5 3 2 4 5 3 5 3 7 11 6 7 11 5 1 2 2 5 9 10 2 10 10 12 11 10 9 8
Wind_Direction
324 320 315 314 311 311 310 309 309 311 315 316 317 318 317 315 290 224 243 166 164 162 238 160 181 176 189 184 183 191 176 114 133 132 126 129 126 127 122 139 116 104 138 136 153
329 323 317 313 309 306 306 303 303 303 305 305 309 311 312 320 271 248 156 146 151 164 188 182 173 175 187 188 189 261 195 152 85 91 138 112 157 130 135 129 116 114 113 139 157
333 327 318 307 298 294 295 297 301 304 304 302 308 301 300 297 262 161 144 180 191 185 191 203 178 193 205 202 160 161 117 112 207 182 156 117 109 140 147 147 144 144 143 152 157
334 330 323 314 306 301 294 294 294 298 300 302 300 293 279 257 230 37 178 172 181 193 188 197 195 204 216 185 136 145 131 174 172 165 162 129 127 90 34 35 146 148 148 155 164
337 334 328 323 313 307 301 299 295 293 292 290 291 288 246 226 85 93 130 150 167 188 193 193 200 212 208 162 146 124 145 180 140 145 107 136 101 98 34 110 130 142 153 159 167
342 338 333 329 319 312 302 298 295 292 286 285 278 269 245 239 355 147 152 164 171 186 190 197 208 235 222 187 225 136 127 116 205 153 127 109 95 94 329 141 142 150 158 162 162
345 342 340 335 329 315 304 301 293 285 287 279 252 251 256 43 354 207 168 171 169 186 179 194 268 229 176 161 156 156 143 134 114 129 106 111 95 112 226 175 159 161 159 155 155
347 346 346 338 325 311 299 290 286 269 256 254 237 247 287 97 106 154 163 154 174 186 222 182 257 270 254 85 167 180 187 160 139 130 136 58 176 180 193 184 171 165 160 158 155
343 345 345 340 334 318 301 288 259 213 202 192 226 250 133 138 170 141 176 162 164 166 191 204 241 247 179 200 176 189 186 172 155 170 157 196 159 179 189 190 182 172 163 166 163
348 343 343 341 341 333 315 266 173 169 197 215 262 241 187 181 136 148 165 163 162 150 159 192 217 217 211 209 205 173 211 160 159 172 180 192 206 165 177 165 199 186 183 173 175
346 345 341 336 333 322 253 192 199 179 210 287 75 318 118 105 140 157 154 169 173 180 179 192 208 212 196 215 338 182 194 164 104 156 179 189 162 161 169 159 202 202 212 184 184
342 334 332 330 323 287 263 257 20 5 290 208 255 264 194 176 153 157 171 173 186 183 169 169 222 204 214 192 219 197 188 136 114 154 220 163 157 164 170 176 188 199 209 209 175
326 329 331 331 335 201 249 272 338 306 260 141 173 195 172 204 170 163 191 194 196 185 188 194 198 135 209 198 209 205 221 148 142 167 213 165 146 163 182 183 178 204 176 215 247
325 335 326 326 238 114 231 111 248 293 245 125 171 151 162 199 160 159 193 181 191 199 197 212 118 189 204 216 225 199 161 151 144 181 182 212 158 193 177 185 190 189 180 211 223
328 334 318 271 326 236 55 329 282 211 174 128 112 124 156 211 129 176 187 197 190 173 212 133 167 193 197 201 208 47 168 204 178 226 182 195 265 143 176 196 196 194 199 199 212
334 333 322 199 227 272 263 282 226 226 96 127 132 169 178 166 174 150 183 226 149 177 235 123 185 189 211 213 220 149 194 187 200 243 230 196 239 151 183 202 202 194 199 201 200
327 306 252 296 21 70 274 229 232 335 169 139 134 175 165 151 142 166 179 174 172 190 196 161 173 171 218 192 194 211 205 195 215 202 241 118 219 309 170 193 204 194 200 195 197
321 309 184 263 310 270 237 245 30 68 51 124 164 157 138 143 131 176 181 157 192 254 199 205 186 190 185 230 182 213 220 233 206 227 221 141 233 139 172 157 200 195 196 195 181
309 180 199 165 223 251 252 232 40 46 29 164 172 175 142 147 163 186 193 191 173 229 271 204 212 169 178 203 225 188 234 267 294 272 251 163 187 165 176 196 193 203 196 190 171
291 207 77 352 191 236 250 69 68 3 340 222 155 279 170 158 186 200 184 149 157 233 262 195 186 193 175 209 215 269 222 218 231 261 223 188 232 244 190 192 186 191 191 187 171
231 191 68 114 235 234 84 71 78 71 346 343 114 141 83 140 235 171 151 137 199 148 220 264 271 149 178 205 191 193 229 244 264 232 258 235 194 85 170 179 181 184 183 176 187
283 150 109 267 220 303 93 25 247 82 53 71 56 65 64 107 135 150 163 44 54 210 192 192 264 176 181 69 309 279 220 224 225 221 259 293 45 111 131 171 176 178 177 176 185
6 97 159 264 159 111 125 100 55 49 41 35 67 44 61 75 129 126 123 86 79 313 351 157 249 213 177 178 171 223 200 259 261 267 254 231 247 145 156 167 168 176 162 164 176
253 147 145 225 344 3 129 93 94 49 62 65 54 160 138 90 52 146 136 107 85 77 359 271 290 292 304 12 1 184 208 231 251 233 237 235 231 161 171 172 162 163 173 171 175
283 63 6 160 150 173 209 117 93 74 84 23 62 32 15 87 109 106 153 149 149 136 210 281 263 270 302 336 324 320 252 226 240 251 278 284 224 227 171 178 165 159 144 152 155
320 270 171 93 135 172 150 103 108 113 355 75 86 55 39 54 19 60 312 304 62 159 218 245 249 256 230 216 224 250 247 256 223 272 261 282 255 6 141 145 165 172 164 162 163
65 135 290 169 168 209 88 124 115 126 75 50 45 302 74 27 351 355 351 10 16 299 186 255 205 227 239 195 236 232 211 296 275 255 326 264 38 84 148 171 172 165 160 166 160